Simultaneous Nadir Overpasses (SNOs) Predictions

Prediction of SNOs between NOAA-19 and TERRA Satellite Orbit:

Table of predicted SNOs for the next 14.0 days since TLE Epoch: 9/7/2015
Index Date (NOAA-19) Time (NOAA-19) Lat,Lon (NOAA-19) SZA (NOAA-19 ) Date (TERRA) Time (TERRA) Lat,Lon (TERRA) SZA (TERRA ) Distance(km) Time Diff (sec)
1 09/09/2015 02:49:56 -72.45, -37.98 113.04 09/09/2015 02:50:09 -72.42, -37.97 113.07 3.61 13
2 09/09/2015 03:40:50 72.21, 129.78 66.75 09/09/2015 03:39:37 72.28, 129.41 66.79 14.58 73
3 09/11/2015 07:33:14 -72.51,-108.88 112.15 09/11/2015 07:34:22 -72.52,-108.86 112.14 1.04 68
4 09/11/2015 08:24:11 72.40, 58.61 67.76 09/11/2015 08:23:49 72.43, 58.62 67.78 2.88 22
5 09/13/2015 13:07:30 72.49, -12.37 68.70 09/13/2015 13:08:02 72.51, -12.28 68.72 3.70 32
6 09/13/2015 13:58:31 -72.41, 155.05 111.38 09/13/2015 13:57:32 -72.39, 155.13 111.40 2.98 59
7 09/15/2015 17:51:00 73.14, -84.56 70.15 09/15/2015 17:52:07 73.02, -82.37 70.11 71.99 67
8 09/15/2015 18:41:48 -72.43, 84.22 110.51 09/15/2015 18:41:46 -72.42, 84.13 110.52 3.30 2
9 09/15/2015 19:32:31 71.56,-106.81 68.71 09/15/2015 19:31:26 71.63,-109.63 68.67 99.30 65
10 09/17/2015 23:25:06 -72.51, 13.28 109.58 09/17/2015 23:25:59 -72.50, 13.21 109.58 2.50 53
11 09/18/2015 00:16:05 72.42,-179.29 70.36 09/18/2015 00:15:26 72.40,-179.33 70.33 2.32 39
12 09/20/2015 04:59:23 72.48, 109.81 71.27 09/20/2015 04:59:39 72.47, 109.74 71.26 2.60 16
